Regional Weather Roundup
Issued by NWS

Home | Current Version | Previous Version | Text Only | Print | Product List | Glossary On
Versions: 1 2 3 4 5 6 7 8 9 10 11 12 13 14 15 16 17 18 19 20 21 22 23 24 25 26 27 28 29 30 31 32 33 34 35 36 37 38 39 40 41 42 43 44 45 46 47 48 49 50
000
ASUS44 KOUN 062110
RWROK

WEATHER ROUNDUP FOR OKLAHOMA
NATIONAL WEATHER SERVICE NORMAN OK
400 PM CDT WED MAY 06 2015

NOTE: "FAIR" INDICATES FEW OR NO CLOUDS BELOW 12,000 FEET WITH NO
      SIGNIFICANT WEATHER AND/OR OBSTRUCTIONS TO VISIBILITY.

OKZ001>007-009>012-014-015-017-062200-
NORTHWEST OKLAHOMA AND THE PANHANDLE

CITY           SKY/WX    TMP DP  RH WIND       PRES   REMARKS
GAGE           MOSUNNY   83  54  36 S35G40    29.71F
GUYMON         MOSUNNY   79  52  38 S30G37    29.65F
ENID/WOODRING  PTSUNNY   75  68  78 SE16G26   29.77F
$$

OKZ016-021>023-033>039-044-045-062200-
SOUTHWEST OKLAHOMA

CITY           SKY/WX    TMP DP  RH WIND       PRES   REMARKS
LAWTON/REGL    PTSUNNY   81  68  64 S16G29    29.79F
LAWTON/FT SILL PTSUNNY   81  70  71 S21G30    29.78F
FREDERICK      MOSUNNY   84  68  58 S18G28    29.75F
CLINTON        MOSUNNY   81  64  56 S24G31    29.76F
HOBART         PTSUNNY   82  67  60 S23G35    29.76F
ALTUS AFB      MOSUNNY   84  66  55 S23G32    29.76F
$$

OKZ018>020-024>031-062200-
CENTRAL OKLAHOMA

CITY           SKY/WX    TMP DP  RH WIND       PRES   REMARKS
OKLAHOMA CITY  PTSUNNY   72  66  81 SE18G25   29.82F
OKC/WILEY POST PTSUNNY   75  67  76 SE23G33   29.81F
OKC/TINKER AFB PTSUNNY   71  65  83 SE10G22   29.84F
STILLWATER     PTSUNNY   75  66  73 S22G29    29.83F
GUTHRIE        PTSUNNY   77  66  68 S22G35    29.81F
$$

OKZ008-013-054>072-062200-
NORTHEAST OKLAHOMA

CITY           SKY/WX    TMP DP  RH WIND       PRES   REMARKS
TULSA          PTSUNNY   78  65  63 S17G29    29.87F
TULSA/JONES    CLOUDY    78  65  63 S14G23    29.88F
PONCA CITY     CLOUDY    77  68  73 SE23G32   29.80F
BARTLESVILLE   PTSUNNY   76  68  76 S17G25    29.88F
MUSKOGEE       CLOUDY    77  62  59 S17G24    29.93F
$$

OKZ032-040>043-046>053-073>077-062200-
SOUTH CENTRAL/SOUTHEAST OKLAHOMA

CITY           SKY/WX    TMP DP  RH WIND       PRES   REMARKS
ARDMORE/DWNTWN MOSUNNY   79  66  65 S14G22    29.87F
MCALESTER      PTSUNNY   77  66  68 SE8G22    29.92F
$$




USA.gov is the U.S. government's official web portal to all federal, state and local government web resources and services.